Tracking 31028 objects as of 17-Jul-2025
HD Live streaming from Space Station
objects crossing your sky now

ONEWEB-0319

Track ONEWEB-0319 now!
10-day predictions
ONEWEB-0319 is classified as:


NORAD ID: 49105
Int'l Code: 2021-075AG
Perigee: 1,199.8 km
Apogee: 1,201.9 km
Inclination: 87.9 °
Period: 109.3 minutes
Semi major axis: 7571 km
RCS: Unknown
Launch date: August 21, 2021
Source: United Kingdom (UK)
Launch site: TYURATAM MISSILE AND SPACE COMPLEX (TTMTR)
Your satellite tracking list
Your tracking list is empty




NASA's NSSDC Master Catalog

Two Line Element Set (TLE):
1 49105U 21075AG  25198.59863944 -.00000003  00000-0 -41583-4 0  9997
2 49105  87.9045  72.4860 0001379  84.9908 275.1381 13.17648476189540
Source of the keplerian elements: AFSPC